GW6932 Weather Reports


time (UTC)temp
C
wind
direction
speed
KPH
gust
KPH
rain 1hr
cm
rain 24hr
cm
rain mn
cm
humidity
%
barometer
mb
20260505171551 26 199 0.0 4.8 0.00 0.00 0.00 76 1010.1
20260505171048 26 136 3.2 6.4 0.00 0.00 0.00 77 1010.0
20260505170545 26 256 0.0 6.4 0.00 0.00 0.00 76 1010.1
20260505170041 26 186 3.2 8.0 0.00 0.00 0.00 78 1010.0
20260505165537 25 153 3.2 6.4 0.00 0.00 0.00 78 1010.2
20260505165032 25 125 4.8 8.0 0.00 0.00 0.00 79 1010.1
20260505164529 25 187 4.8 6.4 0.00 0.00 0.00 79 1010.1
20260505164026 25 201 8.0 9.7 0.00 0.00 0.00 78 1010.2
20260505163525 25 258 3.2 8.0 0.00 0.00 0.00 77 1010.4
20260505163021 25 91 1.6 6.4 0.00 0.00 0.00 78 1010.3
20260505162515 26 342 0.0 4.8 0.00 0.00 0.00 77 1010.1
20260505162012 25 169 0.0 6.4 0.00 0.00 0.00 78 1010.1
20260505161508 25 209 4.8 8.0 0.00 0.00 0.00 78 1010.0
20260505161006 25 129 4.8 6.4 0.00 0.00 0.00 78 1009.9
20260505160504 25 267 0.0 6.4 0.00 0.00 0.00 79 1010.2
20260505152940 25 254 1.6 4.8 0.00 0.00 0.00 79 1009.9
20260505152437 25 85 3.2 12.9 0.00 0.00 0.00 78 1009.9
20260505151932 25 147 3.2 9.7 0.00 0.00 0.00 79 1009.9
20260505151427 25 121 6.4 9.7 0.00 0.00 0.00 79 1009.9
20260505150925 25 188 3.2 4.8 0.00 0.00 0.00 79 1009.9
20260505150422 25 184 0.0 6.4 0.00 0.00 0.00 79 1009.8
20260505140352 24 309 3.2 6.4 0.00 0.00 0.00 80 1009.4
20260505124805 23 164 0.0 9.7 0.00 0.00 0.00 84 1008.8
20260505124302 22 104 3.2 6.4 0.00 0.00 0.00 85 1009.0
20260505123758 22 99 6.4 6.4 0.00 0.00 0.00 85 1009.2
20260505123255 22 117 0.0 4.8 0.00 0.00 0.00 86 1009.4
20260505122751 22 112 1.6 4.8 0.00 0.00 0.00 86 1009.3
20260505122249 22 87 1.6 3.2 0.00 0.00 0.00 86 1009.5
20260505121745 22 178 1.6 4.8 0.00 0.00 0.00 87 1009.2
20260505121242 22 108 3.2 3.2 0.00 0.00 0.00 87 1009.3
20260505120738 22 140 3.2 4.8 0.00 0.00 0.00 87 1009.4
20260505120234 22 175 3.2 6.4 0.00 0.00 0.00 87 1009.0
20260505115733 22 125 0.0 6.4 0.00 0.00 0.00 87 1009.0
20260505115231 22 200 0.0 4.8 0.00 0.00 0.00 87 1009.1
20260505114728 22 127 0.0 8.0 0.00 0.00 0.00 87 1008.9
20260505114223 21 100 1.6 6.4 0.00 0.00 0.00 87 1009.1
20260505113720 21 187 3.2 4.8 0.00 0.00 0.00 87 1009.3
20260505113217 22 182 3.2 4.8 0.00 0.00 0.00 87 1009.1
20260505112713 22 145 4.8 6.4 0.00 0.00 0.00 87 1009.0
20260505112212 22 187 0.0 8.0 0.00 0.00 0.00 87 1009.3
20260505111711 21 34 0.0 4.8 0.00 0.00 0.00 87 1009.2
20260505111207 21 210 6.4 6.4 0.00 0.00 0.00 87 1008.9
20260505110703 21 109 3.2 6.4 0.00 0.00 0.00 87 1008.9
20260505110201 21 117 0.0 3.2 0.00 0.00 0.00 87 1008.9
20260505102137 21 70 1.6 1.6 0.00 0.00 0.00 87 1009.1
20260505101635 21 221 3.2 3.2 0.00 0.00 0.00 87 1009.0
20260505101131 21 198 3.2 3.2 0.00 0.00 0.00 87 1009.2
20260505100627 21 145 3.2 3.2 0.00 0.00 0.00 87 1009.2
20260505100124 21 72 0.0 6.4 0.00 0.00 0.00 87 1009.2
20260505095620 21 182 1.6 3.2 0.00 0.00 0.00 87 1009.1
20260505095117 21 138 3.2 3.2 0.00 0.00 0.00 87 1009.1
20260505094614 21 123 1.6 6.4 0.00 0.00 0.00 87 1009.0
20260505094110 21 188 3.2 4.8 0.00 0.00 0.00 87 1009.3
20260505093606 21 165 3.2 6.4 0.00 0.00 0.00 87 1009.1
20260505093104 21 193 3.2 3.2 0.00 0.00 0.00 87 1009.3
20260505092601 21 94 1.6 3.2 0.00 0.00 0.00 87 1009.3
20260505092100 21 83 0.0 3.2 0.00 0.00 0.00 87 1009.3
20260505091556 21 190 3.2 4.8 0.00 0.00 0.00 87 1009.5
20260505091054 21 94 1.6 4.8 0.00 0.00 0.00 87 1009.4
20260505090552 21 182 3.2 4.8 0.00 0.00 0.00 87 1009.6
20260505090050 21 157 4.8 4.8 0.00 0.00 0.00 86 1009.3
20260505085547 21 148 0.0 4.8 0.00 0.00 0.00 86 1009.4
20260505085045 21 210 3.2 6.4 0.00 0.00 0.00 86 1009.4
20260505084543 21 133 3.2 3.2 0.00 0.00 0.00 86 1009.3
20260505084041 21 133 3.2 4.8 0.00 0.00 0.00 86 1009.2
20260505083537 21 89 0.0 4.8 0.00 0.00 0.00 85 1009.4
20260505083034 21 168 3.2 3.2 0.00 0.00 0.00 85 1009.6
20260505082530 21 160 1.6 4.8 0.00 0.00 0.00 85 1009.6
20260505082027 21 104 0.0 8.0 0.00 0.00 0.00 84 1009.7
20260505081523 21 203 3.2 4.8 0.00 0.00 0.00 84 1009.6
20260505081021 21 182 4.8 4.8 0.00 0.00 0.00 84 1009.9
20260505080517 21 141 3.2 3.2 0.00 0.00 0.00 84 1009.9
20260505080014 21 94 1.6 4.8 0.00 0.00 0.00 84 1009.8
20260505075509 21 68 3.2 3.2 0.00 0.00 0.00 84 1009.9
20260505075007 21 170 3.2 3.2 0.00 0.00 0.00 84 1009.9
20260505074504 21 137 3.2 4.8 0.00 0.00 0.00 84 1009.9
20260505074001 21 193 0.0 3.2 0.00 0.00 0.00 83 1009.9
20260505073458 21 191 3.2 3.2 0.00 0.00 0.00 83 1010.0
20260505072956 21 113 4.8 4.8 0.00 0.00 0.00 83 1010.0
20260505072452 21 146 3.2 6.4 0.00 0.00 0.00 83 1010.1
20260505071948 21 61 1.6 4.8 0.00 0.00 0.00 83 1010.2
20260505071444 21 76 1.6 3.2 0.00 0.00 0.00 83 1010.1
20260505070942 21 98 1.6 6.4 0.00 0.00 0.00 83 1010.1
20260505070438 21 300 0.0 4.8 0.00 0.00 0.00 83 1010.3
20260505065934 21 144 0.0 3.2 0.00 0.00 0.00 82 1010.0
20260505065431 21 43 1.6 3.2 0.00 0.00 0.00 82 1010.4
20260505064928 21 113 3.2 3.2 0.00 0.00 0.00 82 1010.4
20260505064425 21 97 3.2 4.8 0.00 0.00 0.00 82 1010.3
20260505063923 21 131 3.2 4.8 0.00 0.00 0.00 82 1010.4
20260505063419 21 74 3.2 4.8 0.00 0.00 0.00 82 1010.7
20260505062916 21 105 1.6 3.2 0.00 0.00 0.00 82 1010.8
20260505062413 20 255 0.0 3.2 0.00 0.00 0.00 82 1010.6
20260505061909 20 211 1.6 3.2 0.00 0.00 0.00 82 1010.7
20260505061408 20 165 0.0 3.2 0.00 0.00 0.00 82 1010.8
20260505060905 20 119 3.2 6.4 0.00 0.00 0.00 81 1010.9
20260505060402 21 186 0.0 1.6 0.00 0.00 0.00 81 1010.7
20260505055858 21 158 1.6 3.2 0.00 0.00 0.00 81 1010.6
20260505055354 21 181 3.2 3.2 0.00 0.00 0.00 81 1010.7
20260505054851 21 176 3.2 3.2 0.00 0.00 0.00 80 1010.8
20260505054348 21 111 1.6 4.8 0.00 0.00 0.00 80 1010.7
20260505053847 21 127 1.6 3.2 0.00 0.00 0.00 80 1010.9
20260505053343 21 194 3.2 3.2 0.00 0.00 0.00 79 1011.0
20260505052840 21 128 3.2 3.2 0.00 0.00 0.00 79 1011.1
20260505052337 21 177 3.2 4.8 0.00 0.00 0.00 79 1011.2
20260505051834 21 96 1.6 4.8 0.00 0.00 0.00 78 1011.2
20260505051331 21 138 3.2 4.8 0.00 0.00 0.00 78 1011.3
20260505050829 21 57 0.0 3.2 0.00 0.00 0.00 77 1011.4
20260505050328 21 127 3.2 6.4 0.00 0.00 0.00 77 1011.3
20260505041757 22 186 4.8 9.7 0.00 0.00 0.00 74 1011.1
20260505041255 22 118 3.2 11.3 0.00 0.00 0.00 73 1011.0
20260505040752 22 222 4.8 6.4 0.00 0.00 0.00 73 1011.0
20260505040249 22 136 3.2 8.0 0.00 0.00 0.00 73 1011.4
20260505035746 22 120 0.0 6.4 0.00 0.00 0.00 72 1011.2
20260505035242 22 167 1.6 6.4 0.00 0.00 0.00 73 1011.4
20260505034739 22 148 3.2 9.7 0.00 0.00 0.00 73 1011.2
20260505034236 22 148 3.2 9.7 0.00 0.00 0.00 73 1011.2
20260505033732 22 96 0.0 8.0 0.00 0.00 0.00 73 1011.3
20260505033230 22 200 6.4 9.7 0.00 0.00 0.00 73 1011.7
20260505032728 22 201 8.0 9.7 0.00 0.00 0.00 73 1011.6
20260505032224 22 184 4.8 11.3 0.00 0.00 0.00 73 1011.6
20260505031721 22 173 3.2 9.7 0.00 0.00 0.00 73 1011.5
20260505031218 22 46 3.2 6.4 0.00 0.00 0.00 73 1011.5
20260505030715 22 114 3.2 6.4 0.00 0.00 0.00 72 1011.5
20260505030211 22 204 1.6 9.7 0.00 0.00 0.00 72 1011.5
20260505025707 22 3 0.0 6.4 0.00 0.00 0.00 72 1011.3
20260505025205 22 111 3.2 4.8 0.00 0.00 0.00 72 1011.3
20260505024703 22 15 4.8 14.5 0.00 0.00 0.00 71 1011.3
20260505024159 22 93 3.2 9.7 0.00 0.00 0.00 71 1011.1
20260505023657 22 134 4.8 8.0 0.00 0.00 0.00 71 1011.3
20260505023154 22 162 3.2 6.4 0.00 0.00 0.00 71 1011.2
20260505022652 22 119 6.4 6.4 0.00 0.00 0.00 71 1011.3
20260505022149 22 194 1.6 6.4 0.00 0.00 0.00 71 1011.4
20260505021645 22 182 3.2 8.0 0.00 0.00 0.00 71 1011.3
20260505021142 22 136 3.2 17.7 0.00 0.00 0.00 70 1011.3
20260505020637 22 119 1.6 6.4 0.00 0.00 0.00 70 1011.3
20260505020134 23 127 4.8 6.4 0.00 0.00 0.00 70 1010.9
20260505015631 23 121 3.2 6.4 0.00 0.00 0.00 70 1010.9
20260505015127 23 141 0.0 9.7 0.00 0.00 0.00 70 1011.1
20260505014624 23 128 12.9 16.1 0.00 0.00 0.00 70 1010.9
20260505014121 22 125 6.4 6.4 0.00 0.00 0.00 70 1010.9
20260505013619 22 109 3.2 6.4 0.00 0.00 0.00 70 1011.1
20260505013116 22 135 0.0 4.8 0.00 0.00 0.00 70 1010.8
20260505012614 22 68 0.0 4.8 0.00 0.00 0.00 70 1010.9
20260505012111 22 121 4.8 8.0 0.00 0.00 0.00 70 1010.9
20260505011606 23 119 4.8 9.7 0.00 0.00 0.00 69 1010.9
20260505011104 23 131 1.6 8.0 0.00 0.00 0.00 69 1010.9
20260505010604 23 144 1.6 6.4 0.00 0.00 0.00 68 1010.9
20260505005557 23 120 3.2 8.0 0.00 0.00 0.00 68 1010.8
20260505005055 23 124 1.6 14.5 0.00 0.00 0.00 67 1010.8
20260505004552 23 165 3.2 8.0 0.00 0.00 0.00 66 1010.6
20260505004049 23 125 6.4 8.0 0.00 0.00 0.00 66 1010.6
20260505003546 23 162 1.6 8.0 0.00 0.00 0.00 65 1010.5
20260505003043 24 111 4.8 14.5 0.00 0.00 0.00 65 1010.7
20260505002538 24 99 3.2 6.4 0.00 0.00 0.00 66 1010.7
20260505002037 24 95 1.6 11.3 0.00 0.00 0.00 65 1010.8
20260505001534 24 161 4.8 9.7 0.00 0.00 0.00 65 1010.6
20260505001031 24 122 3.2 8.0 0.00 0.00 0.00 64 1010.7
20260505000529 24 72 0.0 9.7 0.00 0.00 0.00 65 1010.7
20260505000026 24 133 6.4 11.3 0.00 0.00 0.00 64 1010.9
20260504235523 24 137 4.8 6.4 0.00 0.00 0.00 64 1010.8
20260504235019 24 107 4.8 8.0 0.00 0.00 0.00 64 1011.0
20260504234516 25 93 4.8 9.7 0.00 0.00 0.00 63 1010.7
20260504234013 25 131 9.7 12.9 0.00 0.00 0.00 62 1010.7
20260504233508 25 76 3.2 9.7 0.00 0.00 0.00 62 1010.9
20260504233006 25 151 9.7 9.7 0.00 0.00 0.00 61 1010.9
20260504232503 25 140 3.2 9.7 0.00 0.00 0.00 61 1011.1
20260504232000 25 89 9.7 14.5 0.00 0.00 0.00 60 1010.8
20260504231456 25 250 1.6 12.9 0.00 0.00 0.00 61 1011.0
20260504230953 25 155 9.7 12.9 0.00 0.00 0.00 59 1011.0
20260504230449 26 152 4.8 14.5 0.00 0.00 0.00 58 1011.4
20260504225948 26 102 4.8 8.0 0.00 0.00 0.00 58 1011.2
20260504225444 26 96 3.2 9.7 0.00 0.00 0.00 57 1011.1
20260504224942 26 129 3.2 17.7 0.00 0.00 0.00 55 1011.3
20260504224438 26 179 1.6 9.7 0.00 0.00 0.00 55 1011.1
20260504223936 26 136 4.8 9.7 0.00 0.00 0.00 54 1011.3
20260504223431 26 93 4.8 6.4 0.00 0.00 0.00 54 1011.4
20260504222927 26 129 1.6 8.0 0.00 0.00 0.00 53 1011.4
20260504222425 26 171 3.2 8.0 0.00 0.00 0.00 53 1011.6
20260504221923 26 129 4.8 8.0 0.00 0.00 0.00 54 1011.5
20260504221419 27 140 3.2 6.4 0.00 0.00 0.00 52 1011.5
20260504220916 27 21 1.6 8.0 0.00 0.00 0.00 52 1011.5
20260504220413 27 145 3.2 8.0 0.00 0.00 0.00 52 1011.4
20260504215910 27 104 4.8 9.7 0.00 0.00 0.00 51 1011.6
20260504215407 27 103 4.8 8.0 0.00 0.00 0.00 50 1011.6
20260504214903 27 223 0.0 8.0 0.00 0.00 0.00 48 1011.7
20260504214400 28 199 1.6 9.7 0.00 0.00 0.00 49 1011.9
20260504213856 27 175 3.2 4.8 0.00 0.00 0.00 48 1011.8
20260504213352 28 165 3.2 14.5 0.00 0.00 0.00 48 1011.7
20260504212850 28 174 0.0 11.3 0.00 0.00 0.00 48 1011.6
20260504212346 28 146 4.8 8.0 0.00 0.00 0.00 48 1011.9
20260504211844 28 294 3.2 6.4 0.00 0.00 0.00 48 1012.1
20260504211339 28 103 0.0 8.0 0.00 0.00 0.00 49 1012.1
20260504210837 28 187 1.6 8.0 0.00 0.00 0.00 49 1012.0
20260504210334 28 106 3.2 8.0 0.00 0.00 0.00 48 1012.2
20260504205831 28 107 1.6 8.0 0.00 0.00 0.00 50 1012.2
20260504205329 28 105 4.8 11.3 0.00 0.00 0.00 47 1012.4
20260504204827 28 202 1.6 6.4 0.00 0.00 0.00 49 1012.5
20260504204325 28 223 4.8 9.7 0.00 0.00 0.00 47 1012.7
20260504203824 27 77 4.8 6.4 0.00 0.00 0.00 47 1012.5
20260504203321 28 142 3.2 6.4 0.00 0.00 0.00 46 1012.6
20260504202816 28 208 1.6 6.4 0.00 0.00 0.00 46 1013.0
20260504202314 28 315 1.6 4.8 0.00 0.00 0.00 48 1012.9
20260504201810 27 167 6.4 6.4 0.00 0.00 0.00 49 1013.0
20260504201308 27 98 1.6 8.0 0.00 0.00 0.00 48 1013.1
20260504200805 28 295 1.6 9.7 0.00 0.00 0.00 47 1013.3
20260504200301 28 282 3.2 12.9 0.00 0.00 0.00 46 1013.2
20260504195757 27 128 3.2 9.7 0.00 0.00 0.00 49 1013.4
20260504195253 28 206 4.8 8.0 0.00 0.00 0.00 45 1013.6
20260504194750 28 58 0.0 8.0 0.00 0.00 0.00 47 1013.5
20260504194247 27 184 1.6 6.4 0.00 0.00 0.00 50 1013.7
20260504193743 27 106 1.6 11.3 0.00 0.00 0.00 49 1013.7
20260504193241 27 171 3.2 6.4 0.00 0.00 0.00 47 1013.6
20260504192739 28 356 1.6 3.2 0.00 0.00 0.00 47 1013.9
20260504192237 27 83 1.6 4.8 0.00 0.00 0.00 49 1013.7
20260504191735 27 50 1.6 16.1 0.00 0.00 0.00 49 1013.7
20260504191232 27 108 0.0 9.7 0.00 0.00 0.00 48 1014.0
20260504190727 27 284 4.8 6.4 0.00 0.00 0.00 49 1014.1
20260504190224 27 190 0.0 4.8 0.00 0.00 0.00 48 1014.0
20260504185720 27 294 0.0 9.7 0.00 0.00 0.00 47 1014.3
20260504185217 28 210 8.0 8.0 0.00 0.00 0.00 46 1014.3
20260504184713 28 205 6.4 6.4 0.00 0.00 0.00 44 1014.2
20260504184209 27 152 1.6 8.0 0.00 0.00 0.00 50 1014.6
20260504183705 27 122 6.4 9.7 0.00 0.00 0.00 48 1014.4
20260504183202 27 113 9.7 9.7 0.00 0.00 0.00 49 1014.4
20260504182700 27 95 4.8 8.0 0.00 0.00 0.00 50 1014.4
20260504182157 26 107 1.6 6.4 0.00 0.00 0.00 50 1014.7
20260504181655 26 108 6.4 8.0 0.00 0.00 0.00 50 1014.6
20260504181152 26 98 1.6 8.0 0.00 0.00 0.00 49 1014.7
20260504180651 27 230 3.2 8.0 0.00 0.00 0.00 47 1014.8
20260504180149 26 126 8.0 8.0 0.00 0.00 0.00 48 1015.0
20260504175646 27 208 4.8 9.7 0.00 0.00 0.00 46 1015.0
20260504175143 26 125 3.2 6.4 0.00 0.00 0.00 50 1014.9
20260504174641 26 191 3.2 8.0 0.00 0.00 0.00 49 1014.9
20260504174137 26 228 4.8 9.7 0.00 0.00 0.00 50 1014.9
20260504173635 26 93 0.0 9.7 0.00 0.00 0.00 47 1015.1
20260504173132 26 305 4.8 6.4 0.00 0.00 0.00 48 1015.3
20260504172629 26 232 0.0 8.0 0.00 0.00 0.00 51 1015.1
20260504172125 26 254 11.3 19.3 0.00 0.00 0.00 49 1015.4